Simultaneous Nadir Overpasses (SNOs) Predictions

Prediction of SNOs between FY3D and AQUA Satellite Orbit:

Table of predicted SNOs for the next 14.0 days since TLE Epoch: 9/14/2024
Index Date (FY3D) Time (FY3D) Lat,Lon (FY3D) SZA (FY3D ) Date (AQUA) Time (AQUA) Lat,Lon (AQUA) SZA (AQUA ) Distance(km) Time Diff (sec)
1 09/14/2024 12:44:42 -79.54, 150.87 103.17 09/14/2024 12:45:21 -79.54, 150.84 103.17 0.71 39
2 09/14/2024 13:35:21 79.33, -40.02 76.56 09/14/2024 13:34:37 79.33, -40.02 76.57 0.09 44
3 09/16/2024 23:57:26 -79.57, -17.54 102.18 09/16/2024 23:58:25 -79.57, -17.62 102.19 1.72 59
4 09/17/2024 00:48:05 79.37, 151.54 77.55 09/17/2024 00:47:41 79.37, 151.49 77.56 1.00 24
5 09/19/2024 11:10:42 -80.45, 164.02 99.76 09/19/2024 11:11:56 -80.63, 164.43 99.66 20.57 74
6 09/19/2024 12:00:49 79.42, -17.06 78.57 09/19/2024 12:00:41 79.43, -17.12 78.58 1.37 8
7 09/21/2024 23:13:31 79.43, 174.73 79.53 09/21/2024 23:13:35 79.43, 174.68 79.53 1.06 4
8 09/24/2024 10:26:14 79.49, 6.08 80.56 09/24/2024 10:26:26 79.49, 6.08 80.56 0.13 12
9 09/24/2024 11:16:52 -79.26, 175.37 99.75 09/24/2024 11:15:40 -79.26, 175.38 99.74 0.25 72
10 09/26/2024 21:38:55 79.54,-162.45 81.57 09/26/2024 21:39:11 79.54,-162.37 81.56 1.60 16



Historial Predications of SNOs between FY3D and AQUA
